Weather History for Leadville, CO

Change the Weather History Date:

Thursday, April 10, 2014

  Actual Average Record
Temperature  
Mean Temperature 37 °F -  
Max Temperature 47 °F 42 °F 59 °F (2012)
Min Temperature 27 °F 17 °F -3 °F (1989)
Degree Days  
Heating Degree Days 28 36  
Month to date heating degree days 401 367  
Since 1 July heating degree days 9210 9350  
Cooling Degree Days 0 0  
Month to date cooling degree days 0 0  
Year to date cooling degree days 0 0  
Moisture  
Dew Point 14 °F    
Average Humidity 45    
Maximum Humidity 69    
Minimum Humidity 21    
Precipitation  
Precipitation 0.00 in 0.04 in 0.22 in (2004)
Month to date precipitation 0.28 0.34  
Year to date precipitation 6.13 2.60  
Sea Level Pressure  
Sea Level Pressure 29.92 in    
Wind  
Wind Speed 8 mph (North)    
Max Wind Speed 25 mph    
Max Gust Speed 33 mph    
Visibility 10 miles    
Events      
T = Trace of Precipitation, MM = Missing Value Source: NWS Daily Summary

Daily Weather History Graph

Daily Weather History Graph

Search for Another Location

Airport:

Trip Planner

Search our weather history database for the weather conditions in past years. The results will help you decide how hot, cold, wet, or windy it might be!

Date:

Astronomy

Apr. 10, 2014 Rise Set
Actual Time 6:35 AM MDT 7:37 PM MDT
Civil Twilight 6:08 AM MDT 8:05 PM MDT
Nautical Twilight 5:35 AM MDT 8:38 PM MDT
Astronomical Twilight 5:01 AM MDT 9:12 PM MDT
Moon 3:25 PM MDT (4/10) 3:58 AM MDT (4/10)
Length of Visible Light 13h 57m
Length of Day
13h 02m
Waxing Gibbous, 80% of the Moon is Illuminated
Apr 10
Waxing Gibbous
Apr 15
Full
Apr 22
Last Quarter
Apr 29
New
May 6
First Quarter

Hourly Weather History & Observations

Time (MDT) Temp. Windchill Dew Point Humidity Pressure Visibility Wind Dir Wind Speed Gust Speed Precip Events Conditions
12:53 AM 36.0 °F 31.1 °F 10.0 °F 34% 29.87 in 10.0 mi NE 5.8 mph - N/A   Clear
1:53 AM 34.0 °F 28.0 °F 10.9 °F 38% 29.86 in 10.0 mi NNE 6.9 mph - N/A   Clear
2:53 AM 32.0 °F 26.4 °F 10.9 °F 42% 29.85 in 10.0 mi NE 5.8 mph - N/A   Clear
3:53 AM 30.9 °F 22.2 °F 12.0 °F 46% 29.86 in 10.0 mi NE 10.4 mph - N/A   Partly Cloudy
4:53 AM 36.0 °F 29.0 °F 12.0 °F 37% 29.83 in 10.0 mi NNE 9.2 mph 21.9 mph N/A   Partly Cloudy
5:53 AM 35.1 °F - 16.0 °F 46% 29.83 in 10.0 mi Calm Calm - N/A   Scattered Clouds
6:53 AM 30.9 °F 26.2 °F 15.1 °F 52% 29.90 in 10.0 mi Variable 4.6 mph - N/A   Clear
7:53 AM 35.6 °F - 14.0 °F 41% 30.19 in 10.0 mi Calm Calm - N/A   Partly Cloudy
8:53 AM 41.0 °F 37.1 °F 12.9 °F 32% 29.89 in 10.0 mi Variable 5.8 mph - N/A   Partly Cloudy
9:53 AM 42.1 °F 39.2 °F 12.9 °F 31% 29.88 in 10.0 mi Variable 4.6 mph 18.4 mph N/A   Clear
10:53 AM 43.0 °F 38.2 °F 14.0 °F 31% 29.88 in 10.0 mi WSW 8.1 mph - N/A   Overcast
11:53 AM 45.0 °F 40.1 °F 14.0 °F 29% 29.87 in 10.0 mi West 9.2 mph - N/A   Mostly Cloudy
12:53 PM 45.0 °F 37.9 °F 12.0 °F 26% 29.85 in 10.0 mi West 16.1 mph 25.3 mph N/A   Scattered Clouds
1:53 PM 45.0 °F 36.9 °F 10.0 °F 24% 29.86 in 10.0 mi West 20.7 mph 28.8 mph N/A   Overcast
2:34 PM 46.0 °F 40.2 °F 9.0 °F 22% 30.17 in 10.0 mi WNW 12.7 mph 25.3 mph N/A   Overcast
2:53 PM 46.0 °F 39.0 °F 9.0 °F 22% 29.86 in 10.0 mi WSW 17.3 mph 26.5 mph N/A   Overcast
3:08 PM 46.0 °F 39.9 °F 10.9 °F 24% 30.17 in 10.0 mi WNW 13.8 mph 27.6 mph N/A   Mostly Cloudy
3:53 PM 46.0 °F 38.8 °F 9.0 °F 22% 29.87 in 10.0 mi NW 18.4 mph 31.1 mph N/A   Partly Cloudy
4:53 PM 46.0 °F 39.0 °F 10.0 °F 23% 29.84 in 10.0 mi WNW 17.3 mph 25.3 mph N/A   Mostly Cloudy
5:53 PM 44.1 °F 40.1 °F 14.0 °F 30% 29.87 in 10.0 mi NNW 6.9 mph 17.3 mph N/A   Clear
6:53 PM 41.0 °F 36.4 °F 17.1 °F 38% 29.94 in 10.0 mi North 6.9 mph - N/A   Clear
7:53 PM 37.9 °F 34.4 °F 17.1 °F 43% 29.95 in 10.0 mi NNE 4.6 mph - N/A   Partly Cloudy
8:53 PM 36.0 °F 29.6 °F 21.9 °F 57% 29.94 in 10.0 mi ENE 8.1 mph - N/A   Scattered Clouds
9:53 PM 30.9 °F 25.2 °F 19.9 °F 64% 29.98 in 10.0 mi ENE 5.8 mph - N/A   Clear
10:53 PM 28.0 °F 21.7 °F 19.0 °F 69% 29.99 in 10.0 mi ENE 5.8 mph - N/A   Clear
11:53 PM 28.0 °F 22.8 °F 18.0 °F 66% 29.95 in 10.0 mi ENE 4.6 mph - N/A   Clear